FGN4JL UZFF-UZFA

Flight info

Callsign FGN4JL
Flight time 0h 13m
Altitude 7000
Route MIKDI2A MIKDI MIKDI1C
Aircraft A20N/M-SDE2E3FGHIRWXY/LB1

Departure

Time 2026-05-04 14:02
Airport Fergana International Airport (UZFF)

Arrival

Time 2026-05-04 14:15
Airport Andijan International Airport (UZFA)
Time Latitude Longitude Altitude Speed Heading
2026-05-04 13:47 40.37593 71.75021 1930 ft 0 kts 115°
2026-05-04 13:55 40.37590 71.75031 1930 ft 2 kts 115°
2026-05-04 13:55 40.37582 71.75046 1930 ft 2 kts 128°
2026-05-04 13:56 40.37570 71.75058 1930 ft 2 kts 154°
2026-05-04 13:56 40.37555 71.75061 1930 ft 2 kts 173°
2026-05-04 13:56 40.37522 71.75056 1930 ft 0 kts 194°
2026-05-04 13:59 40.37438 71.75037 1930 ft 12 kts 190°
2026-05-04 14:00 40.37342 71.75014 1930 ft 16 kts 190°
2026-05-04 14:00 40.37148 71.74976 1931 ft 13 kts 200°
2026-05-04 14:00 40.37107 71.74889 1932 ft 12 kts 270°
2026-05-04 14:01 40.37113 71.74786 1936 ft 11 kts 274°
2026-05-04 14:01 40.37120 71.74665 1955 ft 12 kts 274°
2026-05-04 14:01 40.37075 71.74557 1975 ft 12 kts 187°
2026-05-04 14:02 40.36877 71.74543 1981 ft 63 kts 183°
2026-05-04 14:02 40.36186 71.74492 2004 ft 133 kts 182°
2026-05-04 14:02 40.35096 71.74417 2261 ft 167 kts 185°
2026-05-04 14:02 40.34332 71.74349 2773 ft 166 kts 186°
2026-05-04 14:03 40.33177 71.74217 3615 ft 167 kts 187°
2026-05-04 14:03 40.32009 71.74097 4286 ft 173 kts 186°
2026-05-04 14:03 40.30764 71.74004 4812 ft 187 kts 184°
2026-05-04 14:03 40.29383 71.73909 5106 ft 212 kts 190°
2026-05-04 14:04 40.27231 71.71262 6198 ft 231 kts 258°
2026-05-04 14:04 40.27287 71.69145 6799 ft 242 kts 285°
2026-05-04 14:04 40.28120 71.67232 6958 ft 246 kts 315°
2026-05-04 14:05 40.31598 71.65756 7001 ft 282 kts 360°
2026-05-04 14:05 40.33557 71.65899 7000 ft 282 kts
2026-05-04 14:05 40.35511 71.66079 7000 ft 281 kts
2026-05-04 14:06 40.37469 71.66182 7000 ft 282 kts
2026-05-04 14:06 40.39434 71.66217 7000 ft 282 kts
2026-05-04 14:06 40.41306 71.66856 7000 ft 284 kts 28°
2026-05-04 14:06 40.42788 71.68543 7003 ft 287 kts 54°
2026-05-04 14:07 40.43695 71.70872 7003 ft 287 kts 69°
2026-05-04 14:07 40.44351 71.73354 7000 ft 287 kts 72°
2026-05-04 14:07 40.45005 71.75832 7000 ft 287 kts 70°
2026-05-04 14:07 40.45719 71.78279 6982 ft 288 kts 68°
2026-05-04 14:08 40.46488 71.80706 6863 ft 287 kts 66°
2026-05-04 14:08 40.47285 71.83104 6743 ft 286 kts 66°
2026-05-04 14:08 40.48093 71.85489 6625 ft 286 kts 66°
2026-05-04 14:08 40.48906 71.87878 6506 ft 286 kts 66°
2026-05-04 14:09 40.50851 71.92423 6259 ft 286 kts 58°
2026-05-04 14:09 40.51876 71.94625 6080 ft 286 kts 58°
2026-05-04 14:10 40.53954 71.99123 5356 ft 287 kts 59°
2026-05-04 14:10 40.54981 72.01350 5094 ft 281 kts 59°
2026-05-04 14:10 40.55989 72.03540 4733 ft 282 kts 59°
2026-05-04 14:10 40.57007 72.05753 4294 ft 283 kts 59°
2026-05-04 14:11 40.58018 72.07951 4065 ft 277 kts 59°
2026-05-04 14:11 40.59946 72.12050 4007 ft 247 kts 52°
2026-05-04 14:11 40.61055 72.13662 4007 ft 229 kts 43°
2026-05-04 14:12 40.62156 72.15067 4031 ft 211 kts 43°
2026-05-04 14:12 40.63154 72.16368 3981 ft 193 kts 44°
2026-05-04 14:12 40.64923 72.18753 3517 ft 171 kts 45°
2026-05-04 14:13 40.65755 72.19877 3360 ft 171 kts 45°
2026-05-04 14:13 40.66584 72.21000 3117 ft 171 kts 45°
2026-05-04 14:13 40.67393 72.22094 2895 ft 160 kts 46°
2026-05-04 14:13 40.68140 72.23105 2691 ft 152 kts 45°
2026-05-04 14:14 40.68887 72.24115 2489 ft 154 kts 46°
2026-05-04 14:14 40.70360 72.26107 2074 ft 147 kts 45°
2026-05-04 14:14 40.71055 72.27047 1879 ft 144 kts 45°
2026-05-04 14:15 40.72436 72.28918 1560 ft 134 kts 45°
2026-05-04 14:15 40.73232 72.29984 1561 ft 32 kts 45°
2026-05-04 14:16 40.73496 72.30416 1564 ft 28 kts 67°
2026-05-04 14:16 40.73585 72.30647 1563 ft 29 kts 62°
2026-05-04 14:17 40.73687 72.30899 1560 ft 17 kts 61°
2026-05-04 14:17 40.73771 72.31002 1560 ft 18 kts 15°
2026-05-04 14:17 40.73848 72.31153 1560 ft 0 kts 141°